WetterOnline ( https://www.wetteronline.de )

Wetter aktuell Dingolfing

Aktuelles Wetter: Gottfrieding (350m)

6-stündlich | Neueste Meldungen
Ortszeit Temperatur Wetter
Mo, 10.08. 20:00 26.8° C leicht bewölkt
Mo, 10.08. 14:00 30.5° C wolkenlos
Fr, 07.08. 14:00 28.4° C leicht bewölkt
Fr, 07.08. 2:00 14.7° C wolkenlos
Do, 06.08. 20:00 24.5° C wolkenlos
Do, 06.08. 14:00 24.2° C wolkenlos
Do, 06.08. 8:00 14.9° C wolkenlos
Do, 06.08. 2:00 12.4° C wolkenlos
Ortszeit Temperatur Wetter
Di, 11.08. 0:30 18.2° C leicht bewölkt
Di, 11.08. 0:20 18.2° C leicht bewölkt
Di, 11.08. 0:10 18.7° C leicht bewölkt
Di, 11.08. 0:00 19.1° C fast wolkenlos
Mo, 10.08. 23:50 19.1° C fast wolkenlos
Mo, 10.08. 23:40 20.0° C fast wolkenlos
Mo, 10.08. 23:30 19.8° C leicht bewölkt
Mo, 10.08. 23:00 21.0° C wolkenlos
Ortszeit Relative Feuchte Sichtweite
Mo, 10.08. 20:00 58% 55 km
Mo, 10.08. 14:00 42% 45 km
Fr, 07.08. 14:00 46% 60 km
Fr, 07.08. 2:00 99% 4.2 km
Do, 06.08. 20:00 63% 65 km
Do, 06.08. 14:00 51% 55 km
Do, 06.08. 8:00 86% 25 km
Do, 06.08. 2:00 100% 9 km
Ortszeit Relative Feuchte Sichtweite
Di, 11.08. 0:30 92% 30 km
Di, 11.08. 0:20 92% -
Di, 11.08. 0:10 91% -
Di, 11.08. 0:00 88% 45 km
Mo, 10.08. 23:50 88% -
Mo, 10.08. 23:40 87% -
Mo, 10.08. 23:30 86% 45 km
Mo, 10.08. 23:00 82% 50 km
Ortszeit Niederschlagsmenge Niederschlagsart
Mo, 10.08. 20:00 0.0 l/m2 in 3 Std. -
Mo, 10.08. 14:00 0.0 l/m2 in 3 Std. -
Fr, 07.08. 14:00 0.0 l/m2 in 6 Std. -
Fr, 07.08. 2:00 0.0 l/m2 in 6 Std. -
Do, 06.08. 20:00 0.0 l/m2 in 12 Std. -
Do, 06.08. 14:00 0.0 l/m2 in 6 Std. -
Do, 06.08. 8:00 0.0 l/m2 in 12 Std. -
Do, 06.08. 2:00 0.0 l/m2 in 6 Std. -
Ortszeit Niederschlagsmenge Niederschlagsart
Di, 11.08. 0:30 0.0 l/m2 in 1 Std. -
Di, 11.08. 0:20 keine Meldung -
Di, 11.08. 0:10 keine Meldung -
Di, 11.08. 0:00 0.0 l/m2 in 1 Std. -
Mo, 10.08. 23:50 keine Meldung -
Mo, 10.08. 23:40 keine Meldung -
Mo, 10.08. 23:30 0.0 l/m2 in 1 Std. -
Mo, 10.08. 23:00 0.0 l/m2 in 1 Std. -
Ortszeit Stärke Spitze Richtung
km/h Bft. km/h Grad Sektor
Mo, 10.08. 20:00 9 2 26 50° NO
Mo, 10.08. 14:00 15 3 24 100° O
Fr, 07.08. 14:00 15 3 30 80° O
Fr, 07.08. 2:00 0 0 7 - -
Do, 06.08. 20:00 4 1 22 30° NO
Do, 06.08. 14:00 11 2 22 10° N
Do, 06.08. 8:00 4 1 7 30° NO
Do, 06.08. 2:00 4 1 11 60° NO
Ortszeit Stärke Spitze Richtung
km/h Bft. km/h Grad Sektor
Di, 11.08. 0:30 4 1 7 120° SO
Di, 11.08. 0:20 4 1 - 120° SO
Di, 11.08. 0:10 4 1 - 90° O
Di, 11.08. 0:00 4 1 7 40° NO
Mo, 10.08. 23:50 4 1 - 40° NO
Mo, 10.08. 23:40 2 1 - 40° NO
Mo, 10.08. 23:30 4 1 7 140° SO
Mo, 10.08. 23:00 6 1 9 50° NO
Ortszeit Untergrenze Bedeckung Gattung
total tief tief mittel hoch
Mo, 10.08. 20:00 10500 m 7/8 0/8 - - -
Mo, 10.08. 14:00 - 0/8 0/8 - - -
Fr, 07.08. 14:00 1500 m 2/8 2/8 - - -
Fr, 07.08. 2:00 - 0/8 0/8 - - -
Do, 06.08. 20:00 - 0/8 0/8 - - -
Do, 06.08. 14:00 - 0/8 0/8 - - -
Do, 06.08. 8:00 - 0/8 0/8 - - -
Do, 06.08. 2:00 - 0/8 0/8 - - -
Ortszeit Bedeckungsgrad in Achtel und Wolkenuntergrenze
Di, 11.08. 0:30 4(9000m)
Di, 11.08. 0:20 4(9000m)
Di, 11.08. 0:10 3(9000m)
Di, 11.08. 0:00 1(10500m)
Mo, 10.08. 23:50 1(10500m)
Mo, 10.08. 23:40 2(10500m)
Mo, 10.08. 23:30 2(5100m) 4(10500m)
Mo, 10.08. 23:00 3(5100m)
Ortszeit Luftdruck NN (hPa) Tendenz (hPa in 3 Std.)
Mo, 10.08. 20:00 1012 - 0,3
Mo, 10.08. 14:00 1013 - 0,7
Fr, 07.08. 14:00 1019 - 0,7
Fr, 07.08. 2:00 1022 + 0,2
Do, 06.08. 20:00 1019 + 0,1
Do, 06.08. 14:00 1020 - 0,6
Do, 06.08. 8:00 1021 + 0,7
Do, 06.08. 2:00 1021 + 0,2
Ortszeit Luftdruck NN (hPa) Tendenz (hPa in 3 Std.)
Di, 11.08. 0:30 1016 + 1,1
Di, 11.08. 0:20 1016 keine Meldung
Di, 11.08. 0:10 1016 keine Meldung
Di, 11.08. 0:00 1016 + 1,8
Mo, 10.08. 23:50 1016 keine Meldung
Mo, 10.08. 23:40 1016 keine Meldung
Mo, 10.08. 23:30 1016 + 2,2
Mo, 10.08. 23:00 1015 + 2,0
Ortszeit Schneehöhe (cm)
Mo, 10.08. 20:00 -
Mo, 10.08. 14:00 -
Fr, 07.08. 14:00 -
Fr, 07.08. 2:00 -
Do, 06.08. 20:00 -
Do, 06.08. 14:00 -
Do, 06.08. 8:00 -
Do, 06.08. 2:00 -
Ortszeit Schneehöhe (cm)
Di, 11.08. 0:30 -
Di, 11.08. 0:20 -
Di, 11.08. 0:10 -
Di, 11.08. 0:00 -
Mo, 10.08. 23:50 -
Mo, 10.08. 23:40 -
Mo, 10.08. 23:30 -
Mo, 10.08. 23:00 -
Link zu dieser Seite / Seite empfehlen

Das Wetter in ...